Superior, WI

6:50 PM CST on February 24, 2018 (GMT -0600)
Bong

Weather History for KSUW - December, 2013

Change the Weather History Date:

Tuesday, December 31, 2013

  Actual Average Record
Temperature  
Mean Temperature -16 °F -  
Max Temperature -7 °F 20 °F 42 °F (1949)
Min Temperature -24 °F 3 °F -24 °F (1967)
Degree Days  
Heating Degree Days 80    
Moisture  
Dew Point -21 °F    
Average Humidity 72    
Maximum Humidity 85    
Minimum Humidity 58    
Precipitation  
Precipitation 0.00 in - - ()
Sea Level Pressure  
Sea Level Pressure 30.31 in    
Wind  
Wind Speed 5 mph (West)    
Max Wind Speed 10 mph    
Max Gust Speed -    
Visibility 10 miles    
Events      
Averages and records for this station are not official NWS values.
T = Trace of Precipitation, MM = Missing Value Source: NWS Daily Summary

Daily Weather History Graph

Daily Weather History Graph

Search for Another Location

Airport or City:

Trip Planner

Search our weather history database for the weather conditions in past years. The results will help you decide how hot, cold, wet, or windy it might be!

Date:

Astronomy

Dec. 31, 2013 Rise Set
Actual Time 7:52 AM CST 4:30 PM CST
Civil Twilight 7:17 AM CST 5:05 PM CST
Nautical Twilight 6:39 AM CST 5:43 PM CST
Astronomical Twilight 6:02 AM CST 6:20 PM CST
Moon 6:43 AM CST (12/31) 4:09 PM CST (12/31)
Length of Visible Light 9h 47m
Length of Day
8h 37m
Waning Crescent, 1% of the Moon is Illuminated
Dec 31
Waning Crescent
Jan 1
New
Jan 7
First Quarter
Jan 15
Full
Jan 23
Last Quarter

Hourly Weather History & Observations

Time (CST) Temp. Windchill Dew Point Humidity Pressure Visibility Wind Dir Wind Speed Gust Speed Precip Events Conditions
12:15 AM -8.5 °F -21.6 °F -13.0 °F 81% 30.16 in 10.0 mi WSW 5.8 mph - N/A   Scattered Clouds
12:35 AM -8.7 °F -20.0 °F -13.2 °F 81% 30.16 in 10.0 mi West 4.6 mph - N/A   Clear
12:55 AM -8.3 °F -21.4 °F -13.0 °F 80% 30.16 in 10.0 mi West 5.8 mph - N/A   Clear
1:15 AM -8.0 °F -21.0 °F -14.1 °F 75% 30.16 in 10.0 mi West 5.8 mph - N/A   Clear
1:35 AM -9.2 °F -26.6 °F -15.9 °F 73% 30.16 in 10.0 mi WNW 9.2 mph - N/A   Clear
1:55 AM -14.1 °F -26.3 °F -18.2 °F 82% 30.16 in 10.0 mi SSW 4.6 mph - N/A   Clear
2:15 AM -13.7 °F -23.5 °F -17.0 °F 85% 30.17 in 10.0 mi SW 3.5 mph - N/A   Clear
2:35 AM -13.4 °F -23.1 °F -18.0 °F 80% 30.18 in 10.0 mi SW 3.5 mph - N/A   Clear
2:55 AM -13.0 °F -25.1 °F -18.0 °F 78% 30.19 in 10.0 mi WSW 4.6 mph - N/A   Clear
3:15 AM -12.5 °F -24.4 °F -17.9 °F 77% 30.19 in 10.0 mi West 4.6 mph - N/A   Clear
3:35 AM -13.5 °F -29.3 °F -19.5 °F 75% 30.20 in 10.0 mi West 6.9 mph - N/A   Clear
3:55 AM -13.4 °F -30.4 °F -19.3 °F 75% 30.20 in 10.0 mi West 8.1 mph - N/A   Clear
4:15 AM -13.2 °F -28.8 °F -19.3 °F 74% 30.20 in 10.0 mi West 6.9 mph - N/A   Clear
4:35 AM -14.3 °F -30.1 °F -20.2 °F 75% 30.20 in 10.0 mi West 6.9 mph - N/A   Clear
4:55 AM -14.3 °F -28.5 °F -20.0 °F 75% 30.20 in 10.0 mi West 5.8 mph - N/A   Clear
5:15 AM -16.6 °F -26.8 °F -22.9 °F 73% 30.19 in 10.0 mi West 3.5 mph - N/A   Clear
5:35 AM -15.3 °F -31.4 °F -20.4 °F 78% 30.21 in 10.0 mi West 6.9 mph - N/A   Clear
5:55 AM -15.0 °F -32.4 °F -20.7 °F 75% 30.21 in 10.0 mi West 8.1 mph - N/A   Clear
6:15 AM -15.2 °F -29.5 °F -20.9 °F 75% 30.21 in 10.0 mi West 5.8 mph - N/A   Clear
6:35 AM -15.9 °F -32.1 °F -21.6 °F 75% 30.22 in 10.0 mi West 6.9 mph - N/A   Clear
6:55 AM -16.1 °F -28.6 °F -21.5 °F 77% 30.22 in 10.0 mi West 4.6 mph - N/A   Clear
7:15 AM -20.6 °F - -25.6 °F 78% 30.23 in 10.0 mi Calm Calm - N/A   Clear
7:35 AM -21.5 °F -37.0 °F -26.3 °F 78% 30.23 in 10.0 mi SSW 5.8 mph - N/A   Clear
7:55 AM -17.5 °F -30.3 °F -22.4 °F 79% 30.24 in 10.0 mi SW 4.6 mph - N/A   Clear
8:15 AM -17.3 °F -30.1 °F -22.5 °F 77% 30.24 in 10.0 mi West 4.6 mph - N/A   Clear
8:35 AM -17.0 °F -29.7 °F -22.2 °F 77% 30.25 in 10.0 mi West 4.6 mph - N/A   Clear
8:55 AM -16.2 °F -32.5 °F -22.5 °F 73% 30.27 in 10.0 mi WNW 6.9 mph - N/A   Clear
9:15 AM -15.7 °F -30.2 °F -22.5 °F 71% 30.28 in 10.0 mi WNW 5.8 mph - N/A   Clear
9:35 AM -15.0 °F -32.4 °F -22.2 °F 70% 30.29 in 10.0 mi WNW 8.1 mph - N/A   Clear
9:55 AM -14.3 °F -28.5 °F -21.6 °F 69% 30.30 in 10.0 mi WNW 5.8 mph - N/A   Clear
10:15 AM -13.2 °F -28.8 °F -21.1 °F 68% 30.30 in 10.0 mi WNW 6.9 mph - N/A   Clear
10:35 AM -12.5 °F -24.4 °F -20.6 °F 67% 30.31 in 10.0 mi West 4.6 mph - N/A   Clear
10:55 AM -11.6 °F -26.9 °F -20.2 °F 66% 30.31 in 10.0 mi NW 6.9 mph - N/A   Clear
11:15 AM -10.7 °F -20.0 °F -19.8 °F 64% 30.31 in 10.0 mi NW 3.5 mph - N/A   Clear
11:35 AM -10.3 °F -25.4 °F -19.7 °F 63% 30.31 in 10.0 mi NNW 6.9 mph - N/A   Clear
11:55 AM -9.8 °F -28.3 °F -19.7 °F 62% 30.31 in 10.0 mi NW 10.4 mph - N/A   Clear
12:15 PM -10.1 °F -25.1 °F -19.8 °F 62% 30.32 in 10.0 mi WNW 6.9 mph - N/A   Clear
12:35 PM -9.6 °F -24.5 °F -19.5 °F 62% 30.32 in 10.0 mi WNW 6.9 mph - N/A   Clear
12:55 PM -8.9 °F -20.2 °F -19.3 °F 60% 30.32 in 10.0 mi WNW 4.6 mph - N/A   Clear
1:15 PM -8.5 °F -21.6 °F -19.3 °F 59% 30.32 in 10.0 mi NW 5.8 mph - N/A   Clear
1:35 PM -8.0 °F -21.0 °F -18.6 °F 60% 30.32 in 10.0 mi West 5.8 mph - N/A   Clear
1:55 PM -7.6 °F -22.1 °F -18.4 °F 59% 30.32 in 10.0 mi WNW 6.9 mph - N/A   Clear
2:15 PM -7.6 °F -23.4 °F -18.4 °F 59% 30.32 in 10.0 mi West 8.1 mph - N/A   Clear
2:35 PM -7.4 °F -20.4 °F -18.8 °F 58% 30.33 in 10.0 mi West 5.8 mph - N/A   Clear
2:55 PM -7.6 °F -23.4 °F -18.4 °F 59% 30.33 in 10.0 mi WSW 8.1 mph - N/A   Clear
3:15 PM -7.6 °F -20.6 °F -18.4 °F 59% 30.34 in 10.0 mi West 5.8 mph - N/A   Clear
3:35 PM -7.6 °F -20.6 °F -18.4 °F 59% 30.34 in 10.0 mi West 5.8 mph - N/A   Clear
3:55 PM -7.6 °F -18.8 °F -18.4 °F 59% 30.34 in 10.0 mi WSW 4.6 mph - N/A   Clear
4:15 PM -8.1 °F -19.4 °F -18.4 °F 61% 30.36 in 10.0 mi WSW 4.6 mph - N/A   Clear
4:35 PM -9.0 °F -22.3 °F -18.8 °F 62% 30.36 in 10.0 mi West 5.8 mph - N/A   Clear
4:55 PM -9.9 °F -23.4 °F -18.6 °F 66% 30.36 in 10.0 mi West 5.8 mph - N/A   Clear
5:15 PM -11.9 °F -25.7 °F -19.8 °F 68% 30.37 in 10.0 mi West 5.8 mph - N/A   Clear
5:35 PM -12.1 °F -25.9 °F -20.2 °F 67% 30.38 in 10.0 mi West 5.8 mph - N/A   Clear
5:55 PM -14.1 °F -26.3 °F -20.7 °F 72% 30.38 in 10.0 mi WNW 4.6 mph - N/A   Clear
6:15 PM -14.4 °F -24.3 °F -21.5 °F 71% 30.39 in 10.0 mi West 3.5 mph - N/A   Clear
6:35 PM -14.3 °F -26.5 °F -20.2 °F 75% 30.41 in 10.0 mi WSW 4.6 mph - N/A   Clear
6:55 PM -14.1 °F -26.3 °F -20.7 °F 72% 30.42 in 10.0 mi WSW 4.6 mph - N/A   Clear
7:15 PM -17.0 °F - -23.4 °F 72% 30.42 in 10.0 mi Calm Calm - N/A   Clear
7:35 PM -16.6 °F -29.3 °F -21.8 °F 77% 30.43 in 10.0 mi SSW 4.6 mph - N/A   Clear
7:55 PM -15.9 °F -32.1 °F -20.4 °F 80% 30.44 in 10.0 mi SW 6.9 mph - N/A   Clear
8:15 PM -15.2 °F -29.5 °F -20.9 °F 75% 30.44 in 10.0 mi WSW 5.8 mph - N/A   Clear
8:35 PM -19.8 °F -30.5 °F -24.5 °F 79% 30.44 in 10.0 mi WSW 3.5 mph - N/A   Clear
8:55 PM -16.1 °F -28.6 °F -20.7 °F 79% 30.44 in 10.0 mi West 4.6 mph - N/A   Clear
9:15 PM -18.8 °F -29.3 °F -23.8 °F 78% 30.43 in 10.0 mi West 3.5 mph - N/A   Clear
9:35 PM -20.4 °F - -24.9 °F 80% 30.44 in 10.0 mi Calm Calm - N/A   Clear
9:55 PM -20.4 °F - -24.7 °F 80% 30.44 in 10.0 mi Calm Calm - N/A   Clear
10:15 PM -23.1 °F -36.8 °F -27.4 °F 80% 30.45 in 10.0 mi SSW 4.6 mph - N/A   Clear
10:35 PM -23.6 °F - -27.4 °F 82% 30.45 in 10.0 mi Calm Calm - N/A   Clear
10:55 PM -22.5 °F - -26.9 °F 80% 30.45 in 10.0 mi Calm Calm - N/A   Clear
11:15 PM -24.3 °F - -29.2 °F 78% 30.45 in 10.0 mi Calm Calm - N/A   Clear
11:35 PM -19.5 °F - -24.2 °F 79% 30.45 in 10.0 mi Calm Calm - N/A   Clear
11:55 PM -18.4 °F - -22.7 °F 81% 30.46 in 10.0 mi Calm Calm - N/A   Clear